Weather History for KLAA - May, 2013

Change the Weather History Date:

Friday, May 17, 2013

  Actual Average Record
Temperature  
Mean Temperature 78 °F 63 °F  
Max Temperature 95 °F 79 °F 103 °F (1927)
Min Temperature 61 °F 46 °F 32 °F (1924)
Degree Days  
Heating Degree Days 0 4  
Month to date heating degree days 153 104  
Since 1 July heating degree days 5473 5504  
Cooling Degree Days 13 2  
Month to date cooling degree days 53 18  
Year to date cooling degree days 55 23  
Growing Degree Days 26 (Base 50)    
Moisture  
Dew Point 48 °F    
Average Humidity 46    
Maximum Humidity 84    
Minimum Humidity 8    
Precipitation  
Precipitation 0.00 in 0.06 in 1.41 in (1930)
Month to date precipitation 0.18 0.84  
Year to date precipitation 0.51 3.67  
Sea Level Pressure  
Sea Level Pressure 29.66 in    
Wind  
Wind Speed 13 mph (SSE)    
Max Wind Speed 33 mph    
Max Gust Speed 45 mph    
Visibility 10 miles    
Events      
T = Trace of Precipitation, MM = Missing Value Source: NWS Daily Summary

Daily Weather History Graph

Daily Weather History Graph

Search for Another Location

Airport or City:

Trip Planner

Search our weather history database for the weather conditions in past years. The results will help you decide how hot, cold, wet, or windy it might be!

Date:

Astronomy

May. 17, 2013 Rise Set
Actual Time 5:38 AM MDT 7:56 PM MDT
Civil Twilight 5:08 AM MDT 8:26 PM MDT
Nautical Twilight 4:32 AM MDT 9:03 PM MDT
Astronomical Twilight 3:51 AM MDT 9:43 PM MDT
Moon 12:10 PM MDT (5/17) 12:52 AM MDT (5/17)
Length of Visible Light 15h 17m
Length of Day
14h 18m
Waxing Crescent, 46% of the Moon is Illuminated
May 17
Waxing Crescent
May 17
First Quarter
May 24
Full
May 31
Last Quarter
Jun 8
New

Hourly Weather History & Observations

Time (MDT) Temp. Dew Point Humidity Pressure Visibility Wind Dir Wind Speed Gust Speed Precip Events Conditions
12:53 AM 63.0 °F 55.0 °F 75% 29.68 in 10.0 mi East 16.1 mph 25.3 mph N/A   Clear
1:53 AM 61.0 °F 55.0 °F 81% 29.70 in 10.0 mi East 11.5 mph - N/A   Clear
2:27 AM 60.8 °F 55.4 °F 82% 29.86 in 10.0 mi ESE 8.1 mph - N/A   Mostly Cloudy
2:53 AM 61.0 °F 55.9 °F 83% 29.71 in 10.0 mi ESE 11.5 mph - N/A   Overcast
3:53 AM 62.1 °F 55.9 °F 80% 29.71 in 9.0 mi SE 10.4 mph - N/A   Overcast
4:53 AM 62.1 °F 55.9 °F 80% 29.70 in 9.0 mi SSE 17.3 mph - N/A   Mostly Cloudy
5:04 AM 62.6 °F 55.4 °F 77% 29.85 in 9.0 mi SSE 16.1 mph 24.2 mph N/A   Scattered Clouds
6:53 AM 63.0 °F 55.9 °F 78% 29.74 in 8.0 mi South 13.8 mph - N/A   Clear
7:53 AM 66.9 °F 55.0 °F 66% 29.73 in 9.0 mi South 15.0 mph - N/A   Clear
8:53 AM 72.0 °F 53.1 °F 51% 29.72 in 10.0 mi SSW 9.2 mph - N/A   Clear
9:53 AM 75.9 °F 50.0 °F 40% 29.71 in 10.0 mi SSE 6.9 mph - N/A   Clear
10:53 AM 80.1 °F 46.9 °F 31% 29.70 in 10.0 mi South 4.6 mph - N/A   Clear
11:53 AM 84.0 °F 44.1 °F 25% 29.68 in 10.0 mi South 8.1 mph - N/A   Clear
1:53 PM 89.1 °F 34.0 °F 14% 29.64 in 10.0 mi Calm Calm - N/A   Clear
2:53 PM 93.0 °F 28.0 °F 10% 29.61 in 10.0 mi SSW 6.9 mph 20.7 mph N/A   Clear
3:53 PM 93.9 °F 24.1 °F 8% 29.57 in 10.0 mi SE 8.1 mph - N/A   Clear
4:53 PM 93.0 °F 28.9 °F 10% 29.56 in 10.0 mi SE 9.2 mph - N/A   Clear
5:53 PM 91.0 °F 34.0 °F 13% 29.55 in 10.0 mi SSE 17.3 mph 21.9 mph N/A   Clear
6:53 PM 88.0 °F 39.9 °F 18% 29.55 in 10.0 mi ESE 19.6 mph 25.3 mph N/A   Clear
7:53 PM 84.0 °F 44.1 °F 25% 29.55 in 10.0 mi SE 19.6 mph 26.5 mph N/A   Clear
8:53 PM 80.1 °F 51.1 °F 36% 29.57 in 8.0 mi SE 26.5 mph 38.0 mph N/A   Clear
9:53 PM 75.0 °F 57.0 °F 53% 29.58 in 10.0 mi SE 20.7 mph 25.3 mph N/A   Clear
10:53 PM 72.0 °F 55.9 °F 57% 29.60 in 10.0 mi SSE 20.7 mph - N/A   Clear
11:53 PM 71.1 °F 57.9 °F 63% 29.59 in 10.0 mi SSE 21.9 mph - N/A   Clear